#timestamp,LO_Frequency,Hit,StdDev 
1590796815.8,286046998.1,N
1590796835.6,286046998.4,N
1590796855.4,286046999.7,N
1590796875.3,286046998.1,N
1590796895.1,286046998.9,N
1590796915.9,286047002.6,N
1590796935.7,286046999.7,N
1590796955.5,286046998.2,N
1590796975.4,286047001.0,N
1590796995.2,286047001.2,N
1590797015.1,286047000.0,N
1590797016.0,286047000.0,N
1590797035.8,286047001.0,N
1590797055.6,286046999.4,N
1590797075.5,286046998.8,N
1590797095.3,286046998.3,N
1590797115.2,286046998.2,N
1590797135.9,286047000.0,N
1590797155.7,286047000.3,N
1590797175.6,286047002.0,N
1590797195.4,286046999.8,N
1590797215.2,286047002.1,N
1590797235.1,286047002.0,N
1590797236.0,286047002.0,N
1590797255.8,286047000.9,N
1590797275.7,286046998.5,N
1590797295.5,286047000.1,N
1590797315.3,286047005.2,Y
1590797335.2,286047004.8,P
1590797355.0,286047004.3,N
1590797355.9,286047004.3,N
1590797375.8,286047001.5,N
1590797395.6,286047001.7,N
1590797415.5,286047002.0,N
1590797435.3,286047002.5,N
1590797455.1,286047001.8,N
1590797475.9,286047001.7,N
1590797495.7,286047000.2,N
1590797515.5,286047001.3,N
1590797535.4,286047004.7,Y
1590797555.2,286047002.4,P
1590797575.1,286047002.2,P
1590797576.0,286047002.2,P
1590797595.8,286047002.3,Y
1590797615.6,286046999.4,P
1590797635.5,286046997.4,N
1590797655.3,286046994.9,N
1590797675.2,286046995.0,N
1590797695.9,286046996.2,N
1590797715.7,286046997.5,N
1590797735.6,286046999.6,N
1590797755.4,286047000.4,N
1590797775.2,286047001.5,N
1590797795.1,286046999.7,N
1590797796.0,286046999.7,N
1590797815.8,286047002.3,N
1590797835.7,286047002.8,N
1590797855.5,286047000.8,N
1590797875.3,286047001.1,N
1590797895.2,286047000.0,N
1590797915.0,286046998.3,N
1590797915.9,286046998.3,N
1590797935.8,286047001.0,N
1590797955.6,286047002.3,N
1590797975.4,286047002.2,N
1590797995.3,286047002.6,N
1590798015.1,286047002.7,N
1590798035.9,286047000.6,N
1590798055.7,286046998.3,N
1590798075.5,286046998.2,N
1590798095.4,286046999.0,N
1590798115.2,286046999.4,N
1590798135.1,286046999.6,N
1590798136.0,286046999.6,N
1590798155.8,286046997.0,N
1590798175.6,286046995.0,N
1590798195.5,286046995.2,N
1590798215.3,286046994.6,N
1590798235.2,286046992.0,Y
1590798255.0,286046993.0,P
1590798255.9,286046993.0,N
1590798275.7,286046992.3,N
1590798295.6,286046994.4,N
1590798315.4,286046994.3,N
1590798335.3,286046992.0,Y
1590798355.1,286046997.4,P
1590798356.0,286046997.4,N
1590798375.8,286046996.7,N
1590798395.7,286046996.6,N
1590798415.5,286046997.1,N
1590798435.4,286046999.4,N
1590798455.2,286046997.1,N
1590798475.0,286046999.4,N
1590798475.9,286046999.4,N
1590798495.8,286046999.6,N
1590798515.6,286046997.2,N
1590798535.4,286046997.4,N
1590798555.3,286046999.0,N
1590798575.1,286047000.7,N
1590798595.9,286047002.2,N
1590798615.7,286047000.1,N
1590798635.5,286047004.4,N
1590798655.4,286047003.3,N
1590798675.2,286047002.0,N
1590798695.1,286047000.4,N
1590798696.0,286047000.4,N
1590798715.8,286046998.4,N
1590798735.6,286046999.3,N
1590798755.5,286046997.9,N
1590798775.3,286046995.0,N
1590798795.1,286046995.5,N
1590798815.9,286046994.9,N
1590798835.7,286046997.7,N
1590798855.6,286046996.7,N
1590798875.4,286046997.9,N
1590798895.2,286046996.5,N
1590798915.1,286046997.6,N
1590798916.0,286046997.6,N
1590798935.8,286046997.5,N
1590798955.7,286046996.6,N
1590798975.5,286046997.3,N
1590798995.3,286046999.4,N
1590799015.2,286047000.0,N
1590799035.0,286046998.8,N
1590799035.9,286046998.8,N
1590799055.7,286046998.9,N
1590799075.6,286046999.4,N
1590799095.4,286047001.0,N
1590799115.3,286047000.8,N
1590799135.1,286047000.3,N
1590799155.9,286046999.5,N
1590799175.7,286046999.1,N
1590799195.5,286047001.0,N
1590799215.4,286047000.9,N
1590799235.2,286047000.8,N
1590799255.0,286047000.9,N
1590799255.9,286047000.9,N
1590799275.8,286046998.5,N
1590799295.6,286047001.1,N
1590799315.5,286046998.1,N
1590799335.3,286047000.4,N
1590799355.1,286047000.7,N
1590799375.9,286046996.7,N
1590799395.7,286046999.4,N
1590799415.6,286047000.0,N
1590799435.4,286047003.0,N
1590799455.2,286047002.0,N
1590799475.1,286047000.1,N
1590799476.0,286047000.1,N
1590799495.8,286047002.0,N
1590799515.7,286046999.8,N
1590799535.5,286047001.1,N
1590799555.3,286047000.7,N
1590799575.2,286047011.9,Y
1590799595.0,286047002.6,P
1590799595.9,286047002.6,N
1590799615.7,286047001.1,N
1590799635.6,286046998.6,N
1590799655.4,286047001.9,N
1590799675.3,286047003.3,N
1590799695.1,286047002.3,N
1590799715.8,286047001.9,N
1590799735.7,286047003.9,N
1590799755.5,286047004.8,Y
1590799775.4,286047002.4,P
1590799795.2,286046998.9,P
1590799815.0,286047000.8,N
1590799815.9,286047000.8,N
1590799835.8,286046998.3,N
1590799855.6,286046999.3,N
1590799875.5,286046997.5,N
1590799895.3,286046999.1,N
1590799915.1,286046999.2,N
1590799935.9,286046999.3,N
1590799955.7,286046999.2,N
1590799975.5,286046998.4,N
1590799995.4,286046998.1,N
1590800015.2,286046998.9,N
1590800035.1,286046998.4,N
1590800036.0,286046998.4,N
1590800055.8,286046999.2,N
1590800075.6,286047000.3,N
1590800095.5,286046998.5,N
1590800115.3,286047002.7,N
1590800135.2,286047011.9,Y
1590800155.9,286047002.4,P
1590800175.7,286047000.6,N
1590800195.6,286046999.4,N
1590800215.4,286046999.0,N
1590800235.2,286046996.8,N
1590800255.1,286046997.1,N
1590800256.0,286046997.1,N
1590800275.8,286046999.1,N
1590800295.7,286046998.6,N
1590800315.5,286047001.2,N
1590800335.3,286047001.1,N
1590800355.2,286046998.8,N
1590800375.0,286046998.6,N
1590800375.9,286046998.6,N
1590800395.8,286046998.2,N
